This is the latest recevied weather packets stored in our database for station/object IZ5MMH-4. If no packets are shown the sender has not sent any weather packets the latest 10 day(s).
| Time | Temp. | Humidity | Pressure | Rain* | Wind** | Luminosity | Snow |
|---|---|---|---|---|---|---|---|
| 1787933664 | 33.89° C | 71% | 1014.8 hPa | - | - | - | - |
| 1787933063 | 34.44° C | 69% | 1014.8 hPa | - | - | - | - |
| 1787932463 | 34.44° C | 69% | 1014.8 hPa | - | - | - | - |
| 1787931863 | 33.89° C | 69% | 1014.8 hPa | - | - | - | - |
| 1787931263 | 33.89° C | 71% | 1014.8 hPa | - | - | - | - |
| 1787930664 | 33.89° C | 71% | 1015.1 hPa | - | - | - | - |
| 1787930064 | 33.89° C | 72% | 1015.1 hPa | - | - | - | - |
| 1787929464 | 33.89° C | 72% | 1015.2 hPa | - | - | - | - |
| 1787928863 | 33.89° C | 71% | 1015.3 hPa | - | - | - | - |
| 1787928263 | 33.89° C | 71% | 1015.3 hPa | - | - | - | - |
| 1787927665 | 33.89° C | 72% | 1015.3 hPa | - | - | - | - |
| 1787927063 | 33.89° C | 71% | 1015.3 hPa | - | - | - | - |
| 1787926463 | 33.89° C | 72% | 1015.3 hPa | - | - | - | - |
| 1787925863 | 33.89° C | 74% | 1015.5 hPa | - | - | - | - |
| 1787925263 | 33.89° C | 72% | 1015.5 hPa | - | - | - | - |
| 1787924663 | 33.89° C | 72% | 1015.6 hPa | - | - | - | - |
| 1787924063 | 33.89° C | 71% | 1015.8 hPa | - | - | - | - |
| 1787923463 | 33.89° C | 72% | 1015.7 hPa | - | - | - | - |
| 1787922863 | 33.89° C | 74% | 1015.8 hPa | - | - | - | - |
| 1787922263 | 33.33° C | 75% | 1015.8 hPa | - | - | - | - |
| 1787921663 | 33.33° C | 77% | 1016.1 hPa | - | - | - | - |
| 1787921063 | 32.78° C | 77% | 1016.3 hPa | - | - | - | - |
| 1787920463 | 33.33° C | 75% | 1016.8 hPa | - | - | - | - |
| 1787919863 | 33.33° C | 72% | 1016.7 hPa | - | - | - | - |
| 1787919263 | 33.89° C | 72% | 1016.2 hPa | - | - | - | - |
* Rain since midnight (hover to see other rain measurements)
** Current wind speed in m/s (hover to see current wind gust speed)